Domov               UVHVVR             MKGP            O straneh              
ZDRAVSTVENO VARSTVO RASTLIN
  MREŽA AGROMET. POSTAJ
 ► PROGNOSTIČNA OBVESTILA
AGROMETEOROLOŠKI PODATKI -
ARSO
OBVLADOVANJE TVEGANJ ZARADI
NEUGODNIH VREMENSKIH RAZMER
  ► NARAVNE NESREČE
  ► SUŠA/MOČA
  ► NAMAKANJE
  ► ŽLED (gozdarstvo)
KARTOGRAFSKI PRIKAZI
SPLETNE POVEZAVE
PROJEKTI IN PUBLIKACIJE

AGROMETEOROLOŠKA MREŽA: VREMENSKE POSTAJE IN FENOLOŠKA OPAZOVANJA

Pregled podatkov za lokacijo Zgornja Velka, meteorološka postaja 24378

Pregled senzorjev na lokaciji

ID Ime Zadnja
vrednost
Datum
zadnje
spremembe
Tip
senzorja
895 Omočenost lista (U) 0 U 23.10.2017 10:59 A730WET
896 Temperatura 2 m ( °C) 8,42 °C 23.10.2017 11:00 Generic -40 - +60 °C
897 Relativna vlaga 2 m (% RH) 86,86 % RH 23.10.2017 11:00 Generic 0 - 100 %
898 Padavine 0.2 mm (mm) 0 mm 23.10.2017 11:00 Generic 0.2 mm

Pregled podatkov zadnjih 24 ur

Zap.
št.
Datum in čas Zgornja Velka
Omočenost
lista
Padavine
0.2
mm
Relativna
vlaga
2
m
Temperatura
2
m
0 23.10.2017 10:00 0 0 86,86 8,42
1 23.10.2017 09:30 0 0 86,47 8,13
2 23.10.2017 09:00 0 0 90,82 7,4
3 23.10.2017 08:30 1 0 95,26 6,96
4 23.10.2017 08:00 3 0 95,78 6,59
5 23.10.2017 07:30 10 0 97,17 6,25
6 23.10.2017 07:00 10 0 97,26 6,08
7 23.10.2017 06:30 10 0 97,22 5,96
8 23.10.2017 06:00 10 0 97,19 5,98
9 23.10.2017 05:30 10 0 97,29 6,11
10 23.10.2017 05:00 10 0 97,09 6,13
11 23.10.2017 04:30 10 0 97,29 6,08
12 23.10.2017 04:00 10 0 96,95 6,2
13 23.10.2017 03:30 10 0,2 97,26 6,23
14 23.10.2017 03:00 10 0 97,09 6,32
15 23.10.2017 02:30 10 0 97,12 6,35
16 23.10.2017 02:00 9 0,2 97,17 6,3
17 23.10.2017 01:30 9 0,4 97,12 6,28
18 23.10.2017 01:00 10 0,8 97,12 6,32
19 23.10.2017 00:30 9 0,6 97,12 6,4
20 23.10.2017 00:00 9 0,4 97,05 6,47
21 22.10.2017 23:30 10 0,6 97,17 6,47
22 22.10.2017 23:00 10 0,6 97,12 6,67
23 22.10.2017 22:30 9 0,4 97,09 6,76
24 22.10.2017 22:00 10 0,6 97,09 6,89
25 22.10.2017 21:30 9 0,4 97,02 7,03
26 22.10.2017 21:00 9 1,2 97,12 7,37
27 22.10.2017 20:30 10 2 97,22 7,59
28 22.10.2017 20:00 9 1 97,41 7,86
29 22.10.2017 19:30 9 1,2 97,31 7,99
30 22.10.2017 19:00 9 1,4 97,26 8,06
31 22.10.2017 18:30 9 0,8 97,22 8,13
32 22.10.2017 18:00 10 1 97,22 8,28
33 22.10.2017 17:30 10 1 97,17 8,5
34 22.10.2017 17:00 10 0,8 97,19 8,64
35 22.10.2017 16:30 10 0,8 97,09 8,84
36 22.10.2017 16:00 10 0,8 96,92 9,16
37 22.10.2017 15:30 10 0,4 97,02 9,38
38 22.10.2017 15:00 10 1,4 96,87 9,45
39 22.10.2017 14:30 10 1 96,85 9,52
40 22.10.2017 14:00 10 0,2 96,68 10,13
41 22.10.2017 13:30 10 1,2 96,97 10,62
42 22.10.2017 13:00 10 1 96,83 10,4
43 22.10.2017 12:30 10 2 96,75 10,55
44 22.10.2017 12:00 10 0,2 96,24 10,7
© 2011 Ministrstvo za kmetijstvo, gozdarstvo in prehrano. Vse pravice pridržane.